Milan, NH

10:59 AM EDT on September 25, 2016 (GMT -0400)
Berlin Municipal

Weather History for KBML - January, 1997

Change the Weather History Date:

Thursday, January 9, 1997

  Actual Average Record
Temperature  
Mean Temperature 16 °F -  
Max Temperature 21 °F 22 °F 52 °F (2008)
Min Temperature 10 °F 2 °F -33 °F (2004)
Degree Days  
Heating Degree Days 50    
Moisture  
Dew Point 8 °F    
Average Humidity 70    
Maximum Humidity 85    
Minimum Humidity 57    
Precipitation  
Precipitation 0.00 in - - ()
Sea Level Pressure  
Sea Level Pressure 29.90 in    
Wind  
Wind Speed 7 mph (NW)    
Max Wind Speed 12 mph    
Max Gust Speed 22 mph    
Visibility 7 miles    
Events Snow    
Averages and records for this station are not official NWS values.
T = Trace of Precipitation, MM = Missing Value Source: NWS Daily Summary

Daily Weather History Graph

Daily Weather History Graph

Search for Another Location

Airport or City:

Trip Planner

Search our weather history database for the weather conditions in past years. The results will help you decide how hot, cold, wet, or windy it might be!

Date:

Astronomy

Jan. 09, 1997 Rise Set
Actual Time 7:20 AM EST 4:23 PM EST
Civil Twilight 6:47 AM EST 4:56 PM EST
Nautical Twilight 6:11 AM EST 5:33 PM EST
Astronomical Twilight 5:36 AM EST 6:08 PM EST
Moon 7:18 AM EST (1/9) 5:26 PM EST (1/9)
Length of Visible Light 10h 08m
Length of Day
9h 03m
New Moon, 0% of the Moon is Illuminated
Jan 9
New Moon
Jan 15
First Quarter
Jan 23
Full
Jan 31
Last Quarter
Feb 7
New

Hourly Weather History & Observations

Time (EST) Temp. Windchill Dew Point Humidity Pressure Visibility Wind Dir Wind Speed Gust Speed Precip Events Conditions
12:52 AM 10.9 °F -3.4 °F 3.0 °F 70% 30.03 in 5.0 mi West 11.5 mph 19.6 mph 0.00 in Snow Light Snow
1:52 AM 10.9 °F -3.4 °F 5.0 °F 77% 30.06 in 3.0 mi WNW 11.5 mph 21.9 mph 0.00 in Snow Light Snow
2:52 AM 10.9 °F 2.9 °F 3.9 °F 73% 30.06 in 3.0 mi Variable 4.6 mph - 0.00 in Snow Light Snow
3:52 AM 10.9 °F -0.8 °F 3.9 °F 73% 30.05 in 4.0 mi West 8.1 mph - 0.00 in Snow Light Snow
4:52 AM 10.0 °F -4.5 °F 5.0 °F 80% 30.05 in 3.0 mi WNW 11.5 mph - 0.00 in Snow Light Snow
5:52 AM 10.0 °F 0.4 °F 3.9 °F 76% 30.04 in 5.0 mi Variable 5.8 mph - 0.00 in   Haze
6:52 AM 10.0 °F 0.4 °F 3.9 °F 76% 30.03 in 5.0 mi Variable 5.8 mph - 0.00 in Snow Light Snow
7:52 AM 10.0 °F 3.6 °F 3.9 °F 76% 30.05 in 4.0 mi Variable 3.5 mph - 0.00 in   Haze
8:52 AM 10.9 °F -3.4 °F 3.9 °F 73% 30.04 in 5.0 mi NW 11.5 mph - N/A   Haze
9:52 AM 14.0 °F 3.9 °F 5.0 °F 67% 30.06 in 10.0 mi NW 6.9 mph - N/A   Mostly Cloudy
10:52 AM 15.1 °F 9.4 °F 5.0 °F 64% 30.01 in 10.0 mi Variable 3.5 mph - N/A   Clear
11:52 AM 18.0 °F 9.8 °F 6.1 °F 60% 29.97 in 10.0 mi North 5.8 mph - N/A   Clear
12:52 PM 19.0 °F 13.9 °F 7.0 °F 59% 29.94 in 10.0 mi North 3.5 mph - N/A   Clear
1:52 PM 19.9 °F 14.9 °F 7.0 °F 57% 29.93 in 10.0 mi SE 3.5 mph - N/A   Clear
2:52 PM 21.0 °F - 8.1 °F 57% 29.86 in 10.0 mi Calm Calm - N/A   Clear
3:52 PM 21.0 °F - 9.0 °F 60% 29.84 in 10.0 mi Calm Calm - N/A   Partly Cloudy
4:52 PM 19.9 °F - 10.9 °F 68% 29.82 in 10.0 mi Calm Calm - N/A   Clear
5:52 PM 19.9 °F - 10.9 °F 68% 29.80 in 10.0 mi Calm Calm - N/A   Mostly Cloudy
6:52 PM 19.9 °F - 10.9 °F 68% 29.78 in 10.0 mi Calm Calm - N/A   Overcast
7:52 PM 19.9 °F - 12.0 °F 71% 29.72 in 10.0 mi Calm Calm - N/A   Scattered Clouds
8:52 PM 19.9 °F - 12.9 °F 74% 29.71 in 10.0 mi Calm Calm - N/A   Overcast
9:52 PM 21.0 °F 16.2 °F 12.9 °F 71% 29.66 in 10.0 mi NNW 3.5 mph - N/A   Overcast
10:52 PM 21.0 °F 16.2 °F 14.0 °F 74% 29.64 in 5.0 mi North 3.5 mph - 0.00 in Snow Light Snow
11:52 PM 21.9 °F 12.5 °F 18.0 °F 85% 29.56 in 3.0 mi NNE 8.1 mph - 0.00 in Snow Light Snow